sat.trackr.live / text

‹ back to catalog

STARLINK-2102

NORAD 47382 · 2021-005AK

PAYLOAD ACTIVE UNKNOWN

§ Identity

Operator
Country
US
Launch date
2021-01-20
Launch site
AFETR
Launch vehicle
Mass (kg)
RCS (m²)

Purposes: comms

External: N2YO · Heavens-Above · Gunter

§ Orbital elements

Epoch: 2026-09-19T13:38:41.361792Z

Period
94.01 min
Inclination
53.1594°
Eccentricity
0.0001407
Mean motion
15.31695118 rev/d
Perigee alt
469.8 km
Apogee alt
471.7 km
Semi-major
6,848.9 km
B*
7.2965e-6
RAAN
204.2649°
Arg perigee
81.4024°
Mean anomaly
278.7136°
Rev number
31,324

§ Raw data

STARLINK-21021 47382U 21005AK  26262.56853428 -.00000139  00000+0  72965-5 0  99982 47382  53.1594 204.2649 0001407  81.4024 278.7136 15.31695118313248

JSON: /api/v1/satellites/47382 · /tle

For live sub-satellite position, see the globe view (requires WebGL).

§ Visibility from observer

Set your observer location to see the next 7 days of passes ≥ 10°. The values pass through the URL so the page stays shareable.

No JS? Fill the form by hand. The geolocation button needs JavaScript.